ZHONGXING-2C (41021 NORAD) Tracking and Keplerian Element Data

This shows tracking and keplerian element data for the satellite.

Feedback or suggestion? Click here.




ElementValue
Catalog41021
NameZHONGXING-2C
Epoch Orbit3400
Epoch Day34.70416454
Epoch Year2025
RAAN112.0854
Inclination0.059
Eccentricity8.77E-05
Argument of Perigee62.5697
Mean Anonmoly316.3802
Mean Motion1.00270424
Decay Rate-3.19E-06
L11 41021U 15063A 25034.70416454 -.00000319 00000+0 00000+0 0 9990
L22 41021 0.0590 112.0854 0000877 62.5697 316.3802 1.00270424 34002



Live tracking and technical data element details for ZHONGXING-2C (NORAD 41021). ZHONGXING-2C can be tracked NOW for your location showing map with azimuth and elevation plus other details from your city location.







IsCatalogInMostPopularTable: catalog: 41021, numindb: 572
Update: records affected: 1



GetName: 41021 ZHONGXING-2C

Hit Count: updated at: Sat, 24 May 2025 17:22:13 GMT